Location: ????????
(48.4751°N, 37.6926°E)
Time: 03:15:33
(UTC+00:00)

ATLAS 2AS CENTAUR R/B - Pass Details

Date: 20 January 2021
Orbit: 947 x 1265 km, 63.7° (Epoch: 13 February)

Event Time Altitude Azimuth Distance (km) Brightness Sun altitude
Rises 14:30:31 0° 227° (SW) 4,198 7.6 -4.0°
Reaches altitude 10° 14:33:19 10° 229° (SW) 3,243 6.8 -4.4°
Maximum altitude 14:41:14 73° 314° (NW) 1,311 3.3 -5.6°
Drops below altitude 10° 14:49:02 10° 40° (NE) 3,188 4.6 -6.7°
Enters shadow 14:50:37 - 41° (NE) 3,727 5.0 -7.0°
